Weather in Saran

Kazakhstan     49°48′04″N   72°49′44″E
В апреле 2022 года жителям России запретили посещать сайт meteo.paraplan.net по решению Генеральной прокуратуры. Аудитория сайта уменьшилась в 10 раз. Владельцы сайта не видят смысла в поддержке погодного сервера в таких условиях. Сайт будет закрыт в октябре.
temp.,
°C
wind,
m/s
gust,
m/s
humid.,
%
clouds,
%
prec.,
mm/h
press.,
hPa
HPBL,
m
25 september, sun
sun2500:00+17se33340 0.0 101513
03:00+16se22360 0.0 101511
06:00+14s22405 0.0 101411
09:00+20ssw22280 0.0 1014145
12:00+26wsw222491 0.0 10131471
15:00+28wnw22190 0.0 10112513
18:00+26w2221100 0.0 101129
21:00+18wnw223396 0.0 101111
26 september, mon
mon2600:00+19s34315 0.0 101021
03:00+17ssw334092 0.0 101035
06:00+17ssw453991 0.0 100961
09:00+19w51032100 0.0 1010603
12:00+23sse5527100 0.0 1008532
15:00+24ssw71022100 0.1 10061494
18:00+21wnw1012442 0.1 10071394
21:00+15wnw613360 0.0 1010404
27 september, tue
tue2700:00+11w411430 0.0 1012229
03:00+9wsw410505 0.0 1012182
06:00+10wsw51149100 0.0 1013467
09:00+12w7105099 0.0 10131426
12:00+12wsw9114899 0.1 10131787
15:00+13w101343100 0.0 10132334
18:00+12wnw9144399 0.0 10141675
21:00+10w595199 0.0 1015414
28 september, wed
wed2800:00+7w336739 0.0 101526
03:00+5nnw348390 0.0 101556
06:00+6nnw237998 0.0 1015151
09:00+7nw3566100 0.0 1016826
12:00+8nw555699 0.0 10171280
15:00+7nw5553100 0.0 10181338
18:00+6nnw4454100 0.0 10191295
21:00+5n4458100 0.0 1021622
29 september, thu
thu2900:00+3nnw3363100 0.0 1020255
03:00+4nw246210 0.0 1020441
06:00−1nw36885 0.0 1022103
09:00+2nw46655 0.0 1023524
12:00+6nw553899 0.0 10221554
15:00+7nnw6631100 0.0 10212018
18:00+4n764027 0.0 10231365
21:000nne47475 0.0 1025121